| time (UTC) | temp F | wind direction | speed MPH | gust MPH | rain 1hr in | rain 24hr in | rain mn in | humidity % | barometer mb |
| 20260831013104 | 102 | 343 | 0.0 | 0.0 | 0.00 | 3.30 | 0.63 | 33 | 962.7 |
| 20260831011558 | 102 | 342 | 0.0 | 0.0 | 0.00 | 3.30 | 0.63 | 33 | 962.6 |
| 20260831010057 | 102 | 201 | 0.0 | 7.0 | 0.00 | 3.30 | 0.63 | 33 | 962.8 |
| 20260831004559 | 103 | 289 | 1.0 | 8.0 | 0.00 | 3.54 | 0.63 | 32 | 963.0 |
| 20260831003056 | 104 | 277 | 1.0 | 7.0 | 0.01 | 3.54 | 0.63 | 32 | 963.0 |
| 20260831001555 | 103 | 35 | 0.0 | 6.0 | 0.01 | 3.54 | 0.63 | 32 | 963.0 |
| 20260831000053 | 103 | 351 | 0.0 | 4.0 | 0.01 | 3.54 | 0.63 | 32 | 963.1 |
| 20260830234553 | 104 | 296 | 0.0 | 7.0 | 0.01 | 3.60 | 0.63 | 32 | 963.2 |
| 20260830233049 | 104 | 169 | 0.0 | 0.0 | 0.00 | 3.59 | 0.62 | 32 | 963.3 |
| 20260830231547 | 103 | 233 | 0.0 | 5.0 | 0.00 | 3.59 | 0.62 | 32 | 963.5 |
| 20260830230044 | 103 | 114 | 0.0 | 4.0 | 0.00 | 3.59 | 0.62 | 32 | 963.7 |
| 20260830224543 | 103 | 284 | 0.0 | 0.0 | 0.02 | 3.67 | 0.62 | 32 | 964.0 |
| 20260830223040 | 103 | 269 | 0.0 | 7.0 | 0.03 | 3.67 | 0.62 | 32 | 964.3 |
| 20260830221540 | 102 | 271 | 3.0 | 9.0 | 0.03 | 3.67 | 0.62 | 32 | 964.6 |
| 20260830220035 | 102 | 161 | 0.0 | 9.0 | 0.04 | 3.67 | 0.62 | 33 | 964.8 |
| 20260830214534 | 103 | 200 | 4.0 | 10.0 | 0.06 | 3.91 | 0.60 | 33 | 965.2 |
| 20260830213035 | 101 | 291 | 0.0 | 8.0 | 0.05 | 3.90 | 0.59 | 33 | 965.5 |
| 20260830211527 | 101 | 275 | 0.0 | 10.0 | 0.06 | 3.90 | 0.59 | 34 | 965.8 |
| 20260830210027 | 101 | 169 | 0.0 | 9.0 | 0.07 | 3.88 | 0.56 | 34 | 966.0 |
| 20260830204526 | 101 | 172 | 1.0 | 6.0 | 0.04 | 3.88 | 0.54 | 34 | 966.3 |
| 20260830203022 | 101 | 103 | 0.0 | 0.0 | 0.04 | 3.88 | 0.54 | 34 | 966.6 |
| 20260830201522 | 100 | 114 | 0.0 | 10.0 | 0.03 | 3.87 | 0.53 | 35 | 966.9 |
| 20260830200020 | 100 | 84 | 0.0 | 0.0 | 0.00 | 3.84 | 0.50 | 36 | 967.1 |
| 20260830194518 | 99 | 76 | 0.0 | 6.0 | 0.00 | 3.84 | 0.50 | 36 | 967.2 |
| 20260830193017 | 98 | 221 | 2.0 | 8.0 | 0.06 | 3.84 | 0.50 | 38 | 967.5 |
| 20260830191518 | 98 | 203 | 3.0 | 14.0 | 0.09 | 3.84 | 0.50 | 38 | 967.8 |
| 20260830190021 | 98 | 123 | 1.0 | 8.0 | 0.22 | 3.84 | 0.50 | 38 | 968.0 |
| 20260830184515 | 98 | 153 | 0.0 | 15.0 | 0.22 | 3.84 | 0.50 | 39 | 968.3 |
| 20260830183012 | 97 | 70 | 0.0 | 8.0 | 0.16 | 3.78 | 0.44 | 40 | 968.5 |
| 20260830181511 | 96 | 208 | 0.0 | 10.0 | 0.13 | 3.75 | 0.41 | 41 | 968.7 |
| 20260830180010 | 96 | 145 | 3.0 | 11.0 | 0.03 | 3.62 | 0.28 | 40 | 968.9 |
| 20260830174511 | 96 | 126 | 0.0 | 6.0 | 0.22 | 3.62 | 0.28 | 41 | 969.1 |
| 20260830173008 | 95 | 122 | 1.0 | 10.0 | 0.28 | 3.62 | 0.28 | 42 | 969.1 |
| 20260830171504 | 95 | 86 | 0.0 | 9.0 | 0.28 | 3.62 | 0.28 | 42 | 969.2 |
| 20260830170005 | 94 | 145 | 2.0 | 13.0 | 0.25 | 3.59 | 0.25 | 43 | 969.1 |
| 20260830164501 | 93 | 194 | 2.0 | 15.0 | 0.06 | 3.40 | 0.06 | 43 | 969.2 |
| 20260830163100 | 93 | 138 | 0.0 | 8.0 | 0.00 | 3.34 | 0.00 | 45 | 969.0 |
| 20260830161606 | 92 | 73 | 0.0 | 7.0 | 0.00 | 3.34 | 0.00 | 44 | 969.3 |
| 20260830160104 | 91 | 142 | 0.0 | 8.0 | 0.00 | 3.34 | 0.00 | 45 | 969.2 |
| 20260830154553 | 90 | 104 | 0.0 | 10.0 | 0.00 | 3.35 | 0.00 | 46 | 969.1 |
| 20260830153052 | 90 | 116 | 2.0 | 10.0 | 0.00 | 3.35 | 0.00 | 47 | 969.2 |
| 20260830151603 | 89 | 90 | 3.0 | 10.0 | 0.00 | 3.35 | 0.00 | 47 | 969.2 |
| 20260830150051 | 89 | 107 | 0.0 | 10.0 | 0.00 | 3.35 | 0.00 | 48 | 969.2 |
| 20260830144556 | 88 | 107 | 2.0 | 12.0 | 0.00 | 3.35 | 0.00 | 49 | 969.3 |
| 20260830143048 | 87 | 87 | 1.0 | 10.0 | 0.00 | 3.35 | 0.00 | 50 | 969.2 |
| 20260830141548 | 87 | 109 | 2.0 | 11.0 | 0.00 | 3.35 | 0.00 | 51 | 969.0 |
| 20260830140054 | 85 | 78 | 2.0 | 8.0 | 0.00 | 3.35 | 0.00 | 53 | 969.0 |
| 20260830134553 | 85 | 83 | 0.0 | 0.0 | 0.00 | 3.35 | 0.00 | 54 | 969.0 |
| 20260830133044 | 84 | 83 | 0.0 | 0.0 | 0.00 | 3.35 | 0.00 | 54 | 968.9 |
| 20260830131554 | 85 | 83 | 0.0 | 0.0 | 0.00 | 3.35 | 0.00 | 53 | 968.6 |
| 20260830130038 | 85 | 83 | 0.0 | 7.0 | 0.00 | 3.35 | 0.00 | 52 | 968.1 |
| 20260830124539 | 86 | 79 | 2.0 | 7.0 | 0.00 | 3.35 | 0.00 | 51 | 968.0 |
| 20260830123038 | 86 | 83 | 0.0 | 0.0 | 0.00 | 3.35 | 0.00 | 51 | 967.8 |
| 20260830121532 | 86 | 93 | 0.0 | 0.0 | 0.00 | 3.35 | 0.00 | 51 | 967.5 |
| 20260830120033 | 86 | 93 | 0.0 | 0.0 | 0.00 | 3.35 | 0.00 | 51 | 967.3 |
| 20260830114531 | 85 | 93 | 0.0 | 3.0 | 0.00 | 3.35 | 0.00 | 52 | 967.3 |
| 20260830113029 | 85 | 150 | 0.0 | 0.0 | 0.00 | 3.35 | 0.00 | 53 | 967.3 |
| 20260830111531 | 85 | 150 | 0.0 | 6.0 | 0.00 | 3.35 | 0.00 | 53 | 967.3 |
| 20260830110028 | 85 | 150 | 0.0 | 7.0 | 0.00 | 3.35 | 0.00 | 53 | 967.3 |
| 20260830104524 | 87 | 57 | 0.0 | 0.0 | 0.00 | 3.35 | 0.00 | 51 | 967.3 |
| 20260830103030 | 87 | 50 | 0.0 | 0.0 | 0.00 | 3.35 | 0.00 | 51 | 967.1 |
| 20260830101520 | 87 | 41 | 0.0 | 6.0 | 0.00 | 3.35 | 0.00 | 51 | 967.1 |
| 20260830100018 | 88 | 74 | 0.0 | 4.0 | 0.00 | 3.35 | 0.00 | 50 | 966.9 |
| 20260830094516 | 88 | 43 | 2.0 | 6.0 | 0.00 | 3.35 | 0.00 | 49 | 966.7 |
| 20260830093020 | 89 | 65 | 0.0 | 9.0 | 0.00 | 3.35 | 0.00 | 48 | 966.4 |
| 20260830091514 | 89 | 45 | 4.0 | 10.0 | 0.00 | 3.35 | 0.00 | 48 | 966.3 |
| 20260830090012 | 89 | 44 | 2.0 | 9.0 | 0.00 | 3.35 | 0.00 | 46 | 966.3 |
| 20260830084512 | 89 | 360 | 0.0 | 6.0 | 0.00 | 3.35 | 0.00 | 47 | 966.4 |
| 20260830083008 | 89 | 9 | 0.0 | 0.0 | 0.00 | 3.35 | 0.00 | 46 | 966.4 |
| 20260830081508 | 90 | 71 | 0.0 | 0.0 | 0.00 | 3.35 | 0.00 | 44 | 966.2 |
| 20260830080107 | 90 | 71 | 0.0 | 0.0 | 0.00 | 3.35 | 0.00 | 43 | 966.1 |
| 20260830074508 | 91 | 71 | 0.0 | 0.0 | 0.02 | 3.35 | 0.00 | 42 | 965.9 |
| 20260830073006 | 91 | 70 | 0.0 | 8.0 | 0.03 | 3.35 | 0.00 | 42 | 965.8 |
| 20260830071502 | 90 | 64 | 2.0 | 16.0 | 0.08 | 3.35 | 0.00 | 43 | 966.0 |
| 20260830070058 | 89 | 51 | 5.0 | 12.0 | 0.14 | 3.35 | 0.00 | 46 | 966.6 |
| 20260830064608 | 89 | 63 | 4.0 | 14.0 | 0.15 | 3.33 | 3.33 | 45 | 966.6 |
| 20260830063056 | 88 | 80 | 5.0 | 18.0 | 0.20 | 3.32 | 3.32 | 48 | 966.2 |
| 20260830061555 | 87 | 105 | 9.0 | 17.0 | 0.21 | 3.27 | 3.27 | 50 | 966.4 |
| 20260830060058 | 88 | 111 | 8.0 | 19.0 | 0.21 | 3.21 | 3.21 | 49 | 966.7 |
| 20260830054549 | 88 | 95 | 7.0 | 21.0 | 0.41 | 3.18 | 3.18 | 50 | 966.8 |
| 20260830053044 | 90 | 102 | 10.0 | 18.0 | 0.60 | 3.10 | 3.10 | 47 | 966.9 |
| 20260830051544 | 92 | 112 | 7.0 | 17.0 | 0.77 | 3.06 | 3.06 | 44 | 966.9 |
| 20260830050046 | 92 | 105 | 6.0 | 16.0 | 1.69 | 3.00 | 3.00 | 42 | 966.9 |
| 20260830044543 | 95 | 123 | 7.0 | 19.0 | 2.00 | 2.77 | 2.77 | 37 | 966.8 |
| 20260830043042 | 96 | 119 | 3.0 | 11.0 | 1.74 | 2.50 | 2.50 | 38 | 966.1 |
| 20260830041543 | 97 | 147 | 9.0 | 28.0 | 1.53 | 2.29 | 2.29 | 36 | 965.6 |
| 20260830040052 | 101 | 144 | 14.0 | 32.0 | 0.53 | 1.29 | 1.29 | 30 | 965.3 |
| 20260830034541 | 103 | 194 | 0.0 | 0.0 | 0.00 | 0.76 | 0.76 | 29 | 964.5 |
| 20260830033040 | 104 | 232 | 0.0 | 0.0 | 0.00 | 0.76 | 0.76 | 28 | 964.2 |
| 20260830031540 | 104 | 237 | 0.0 | 0.0 | 0.00 | 0.76 | 0.76 | 28 | 963.7 |
| 20260830030040 | 104 | 206 | 0.0 | 0.0 | 0.00 | 0.76 | 0.76 | 28 | 963.5 |
| 20260830024539 | 104 | 215 | 0.0 | 0.0 | 0.00 | 0.76 | 0.76 | 28 | 963.3 |
| 20260830023043 | 105 | 248 | 0.0 | 0.0 | 0.00 | 0.76 | 0.76 | 27 | 963.1 |
| 20260830021538 | 105 | 271 | 5.0 | 10.0 | 0.04 | 0.76 | 0.76 | 27 | 962.8 |
| 20260830020038 | 105 | 267 | 6.0 | 13.0 | 0.08 | 0.76 | 0.76 | 26 | 962.7 |